FW8736 Weather Reports


time (UTC)temp
F
wind
direction
speed
knots
gust
knots
rain 1hr
in
rain 24hr
in
rain mn
in
humidity
%
barometer
mb
20260504202017 76 184 4.3 8.7 0.00 0.00 0.00 36 1010.2
20260504201017 76 171 5.2 9.6 0.00 0.00 0.00 35 1010.3
20260504200017 76 176 4.3 10.4 0.00 0.00 0.00 35 1010.4
20260504195017 76 191 5.2 9.6 0.00 0.00 0.00 35 1010.6
20260504194017 75 192 5.2 8.7 0.00 0.00 0.00 36 1010.6
20260504193018 75 197 4.3 7.8 0.00 0.00 0.00 36 1010.8
20260504192018 75 179 4.3 8.7 0.00 0.00 0.00 36 1010.9
20260504191018 75 179 4.3 10.4 0.00 0.00 0.00 36 1011.1
20260504190018 75 190 4.3 8.7 0.00 0.00 0.00 36 1011.2
20260504185018 74 199 3.5 7.0 0.00 0.00 0.00 36 1011.4
20260504184015 74 203 5.2 8.7 0.00 0.00 0.00 37 1011.4
20260504183017 73 196 4.3 7.8 0.00 0.00 0.00 36 1011.6
20260504182036 73 195 5.2 10.4 0.00 0.00 0.00 37 1011.8
20260504181016 74 186 4.3 9.6 0.00 0.00 0.00 36 1011.9
20260504180016 73 183 3.5 7.0 0.00 0.00 0.00 37 1012.1
20260504175016 72 201 4.3 8.7 0.00 0.00 0.00 37 1012.0
20260504174016 72 193 4.3 9.6 0.00 0.00 0.00 36 1012.0
20260504173017 73 196 4.3 7.8 0.00 0.00 0.00 36 1012.1
20260504172017 73 166 4.3 9.6 0.00 0.00 0.00 36 1012.1
20260504171017 72 199 4.3 10.4 0.00 0.00 0.00 35 1012.3
20260504151016 67 207 2.6 7.8 0.00 0.00 0.00 45 1013.7
20260504141017 64 184 3.5 7.0 0.00 0.00 0.00 50 1013.8
20260504081017 52 146 1.7 3.5 0.00 0.00 0.00 77 1014.8
20260504050017 43 151 0.0 0.9 0.00 0.00 0.00 87 1015.0
20260504045017 43 108 0.0 0.9 0.00 0.00 0.00 85 1015.1
20260504044017 43 0.0 0.0 0.00 0.00 0.00 83 1015.1
20260504043017 43 139 0.0 1.7 0.00 0.00 0.00 83 1015.0
20260504042018 43 0.0 0.0 0.00 0.00 0.00 83 1015.0
20260504041018 43 0.0 0.0 0.00 0.00 0.00 82 1014.9
20260504040018 43 0.0 0.0 0.00 0.00 0.00 81 1014.8
20260504035015 43 0.0 0.0 0.00 0.00 0.00 79 1014.7
20260504034015 42 121 0.0 0.9 0.00 0.00 0.00 81 1014.7
20260504033015 42 0.0 0.0 0.00 0.00 0.00 83 1014.7
20260504032016 43 94 0.0 0.9 0.00 0.00 0.00 81 1014.5
20260504031016 42 0.0 0.0 0.00 0.00 0.00 80 1014.4
20260504030036 43 118 0.0 0.9 0.00 0.00 0.00 82 1014.5
20260504025016 43 107 0.0 1.7 0.00 0.00 0.00 80 1014.5
20260504024017 44 103 0.0 0.9 0.00 0.00 0.00 78 1014.4
20260504023036 44 0.0 0.0 0.00 0.00 0.00 78 1014.5
20260504022017 45 127 0.0 1.7 0.00 0.00 0.00 78 1014.5
20260504021017 45 113 0.0 1.7 0.00 0.00 0.00 75 1014.4
20260504020017 45 0.0 0.0 0.00 0.00 0.00 74 1014.4
20260504015017 46 0.0 0.0 0.00 0.00 0.00 74 1014.4
20260504014017 47 107 0.0 1.7 0.00 0.00 0.00 70 1014.3
20260504013017 47 104 0.0 0.9 0.00 0.00 0.00 69 1014.2
20260504012018 48 0.0 0.0 0.00 0.00 0.00 68 1014.1
20260504011018 49 0.0 0.0 0.00 0.00 0.00 68 1014.1
20260504010019 50 111 0.0 0.9 0.00 0.00 0.00 65 1014.0
20260504005015 51 0.0 0.0 0.00 0.00 0.00 60 1014.0
20260504004015 52 99 0.0 1.7 0.00 0.00 0.00 58 1013.9
20260504003016 54 118 0.0 1.7 0.00 0.00 0.00 53 1013.8
20260504002016 56 130 0.9 1.7 0.00 0.00 0.00 49 1013.6
20260504001016 57 197 0.9 1.7 0.00 0.00 0.00 46 1013.6
20260504000016 58 191 0.0 1.7 0.00 0.00 0.00 45 1013.4
20260503235016 59 184 0.9 2.6 0.00 0.00 0.00 43 1013.3
20260503234017 59 196 1.7 3.5 0.00 0.00 0.00 41 1013.2
20260503233017 60 198 0.9 2.6 0.00 0.00 0.00 40 1013.2
20260503232038 60 202 1.7 3.5 0.00 0.00 0.00 39 1013.2
20260503231018 61 208 2.6 5.2 0.00 0.00 0.00 39 1013.2
20260503230017 62 208 0.9 3.5 0.00 0.00 0.00 38 1013.2
20260503225018 62 205 1.7 7.0 0.00 0.00 0.00 37 1013.3
20260503224018 62 210 2.6 7.0 0.00 0.00 0.00 36 1013.2
20260503223015 63 204 2.6 7.0 0.00 0.00 0.00 37 1013.2
20260503222035 63 225 2.6 7.8 0.00 0.00 0.00 36 1013.3
20260503221018 62 204 2.6 7.0 0.00 0.00 0.00 36 1013.3
20260503220015 62 214 3.5 8.7 0.00 0.00 0.00 37 1013.4
20260503215016 63 220 3.5 7.8 0.00 0.00 0.00 37 1013.3
20260503214016 62 232 3.5 7.8 0.00 0.00 0.00 36 1013.4
20260503213016 62 224 4.3 7.8 0.00 0.00 0.00 36 1013.3
20260503212056 62 245 3.5 7.8 0.00 0.00 0.00 37 1013.2
20260503211036 62 212 4.3 7.8 0.00 0.00 0.00 37 1013.2
20260503210017 62 227 4.3 8.7 0.00 0.00 0.00 37 1013.3
20260503205018 62 247 3.5 8.7 0.00 0.00 0.00 37 1013.4
20260503204017 62 223 3.5 7.8 0.00 0.00 0.00 37 1013.5
20260503203017 62 213 3.5 7.8 0.00 0.00 0.00 38 1013.5